RADFXSAT (FOX-1B)

Last updated on Wed Sep 09 2026 00:03:15 GMT+0000 (Coordinated Universal Time)

1 43017U 17073E 26251.59183835 .00008916 00000+0 37761-3 0 9991 2 43017 97.4573 117.1039 0148660 40.8475 320.3785 15.13817220478004
UTC large
Height (km)
Speed (km/s)
/
Latitude / Longitude
Inclination (degrees)
Orbital Period (minutes)
Azimuth
Elevation
Range (km)
Doppler Factor

Next 0 passes for location: London (51.5072 / 0.1276)

No passes found over London.
RADFXSAT (FOX-1B)